Simultaneous Nadir Overpasses (SNOs) Predictions

Prediction of SNOs between GOES-17 and METOP-B Satellite Orbit:

Table of predicted SNOs for the next 14.0 days since TLE Epoch: 11/26/2022
Index Date Time (GOES-17) GOES-17 Lat,Lon METOP-B Lat,Lon Distance(km) Time Diff (sec)
1 11/27/2022 06:44:48 0.01,-137.33 -0.37,-138.92 182.31 80
2 11/28/2022 06:26:50 0.01,-137.32 0.75,-133.93 385.73 80
3 11/29/2022 18:43:03 -0.01,-137.31 0.26,-138.50 135.77 80
4 11/30/2022 18:25:04 -0.01,-137.30 -0.87,-133.51 432.22 80
5 12/02/2022 06:41:26 0.01,-137.28 -0.15,-138.11 93.32 80
6 12/03/2022 06:23:27 0.01,-137.27 0.97,-133.12 474.52 80
7 12/04/2022 18:39:40 -0.02,-137.26 0.09,-137.67 47.52 80
8 12/07/2022 06:40:42 0.02,-137.22 0.02,-137.28 6.76 80
9 12/09/2022 18:38:56 -0.02,-137.17 -0.10,-136.85 37.19 80
